OBJECT C, 44312

Orbit data source: Space-Track

You're viewing an Uncataloged Satellite

Recently launched and/or uncataloged satellites may have evolving metadata. Metadata may include but not limited to: Owner, Maufacturer, Bus, Motor, and Mission.

OBJECT C, 44312 is a satellite owned by CAST (CN) in LEO that was launched on Wed, 05 Jun 2019 UTC via a CHANG ZHENG 11 launch vehicle from the Yellow Sea Launch Area, China (YSLA). Unknown objects in Earth's orbit typically refer to objects detected orbiting the Earth but have not yet been identified or cataloged. These objects could be anything from previously untracked satellites, spent rocket stages, debris from satellite collisions, or even natural meteoroids temporarily captured by Earth's gravity.

Loading next visibility...
Identifier
44312, 2019-032C
Orbit
LEO
Country
Flag of CNCN / PRC
Related business
Manufacturer
CAST?
Mission
Operational Commercial Weather
Bus & Motor
BF, Unknown motor
Mass
~10 kg wet, ~10 kg dry
Launch date (UTC)
2019-06-05 (6 years ago)
Launch vehicle
CHANG ZHENG 11
Launch site
Yellow Sea Launch Area, China (YSLA)
Object type
Unknown
Shape & HBR
Box, 0.1 m
Radar Cross Section
0.105 m², Medium (>0.1 m² and < 1m²)

Expand to show TLE details & history
Last TLE update: 3 hours ago

TLE from 3 hours ago
0 OBJECT C
1 44312U 19032C   25243.01396493  .00015266  00000-0  62411-3 0  9997
2 44312  44.9837 144.3644 0009119  85.0128 275.1795 15.24239782343437
Epoch: 2025-08-31T00:20Z
TLE epoch observation values (Epoch: 2025-08-31T00:20:06.569Z)
Latitude
0.00001°
Longitude
159.89704°
Altitude
492.506 km
Speed
7.621 km/s
True Right ascension
09h 37m 27s
True Declination
0° 00' 00"
Sunlit
Object was in daylight at epoch
Visualization orbit readout
Latitude
Unknown
Longitude
Unknown
Altitude
Unknown
Speed
Unknown
Apparent Right ascension
Unknown
Apparent Declination
Unknown
Sunlit
N/A
Visualization observer readout
Local Sidereal Time
18:59:27
Azimuth
Unknown
Elevation
Unknown
Doppler factor
Unknown
Orbital elements
Apogee altitude
500.946 km
Perigee altitude
488.411 km
Semi-major axis
6,872.816 km
Eccentricity
0.00091
Inclination
44.9837°
RAAN
144.3644°
Arg. of periapsis
85.0128°
True anomaly
275.07542°
Mean anomaly
275.1795°
Eccentric anomaly
275.12746°
Mean motion
3.80926 °/min
Orbital period
94.51 mins
BSTAR
0.00062411
Loading maneuver chart data...
Computing Atmospheric mass density...
Loading historical data...
Loading historical data...
Loading historical data...
Loading historical data...
Loading historical data...
Loading historical data...
Loading historical data...

Documentation

Showing up to 5 results
|